Time,TemperatureF,DewpointF,PressureIn,WindDirection,WindDirectionDegrees,WindSpeedMPH,WindSpeedGustMPH,Humidity,HourlyPrecipIn,Conditions,Clouds,dailyrainin,SolarRadiationWatts/m^2,SoftwareType,DateUTC
2013-05-03 00:01:00,63.5,56.2,30.15,North,5,4.0,8.0,77,0.00,,CLR,0.03,0.00,VWS V14.01,2013-05-03 04:01:00,
2013-05-03 00:06:00,63.4,55.7,30.15,ENE,71,3.0,9.0,76,0.00,,CLR,0.00,0.00,VWS V14.01,2013-05-03 04:06:00,
2013-05-03 00:11:00,63.3,55.6,30.15,North,5,6.0,12.0,76,0.00,,CLR,0.00,0.00,VWS V14.01,2013-05-03 04:11:00,
2013-05-03 00:16:00,63.2,55.5,30.14,ENE,62,10.0,16.0,76,0.00,,CLR,0.00,0.00,VWS V14.01,2013-05-03 04:16:00,
2013-05-03 00:21:00,63.2,55.9,30.14,East,82,5.0,7.0,77,0.00,,CLR,0.00,0.00,VWS V14.01,2013-05-03 04:21:00,
2013-05-03 00:26:00,63.1,55.8,30.14,ENE,77,0.0,9.0,77,0.00,,CLR,0.00,0.00,VWS V14.01,2013-05-03 04:26:00,
2013-05-03 00:31:00,62.9,55.9,30.14,ENE,76,4.0,9.0,78,0.00,,CLR,0.00,0.00,VWS V14.01,2013-05-03 04:31:00,
2013-05-03 00:36:00,62.8,56.2,30.13,East,88,9.0,10.0,79,0.00,,CLR,0.00,0.00,VWS V14.01,2013-05-03 04:36:00,
2013-05-03 00:41:00,62.7,56.1,30.14,ENE,66,5.0,11.0,79,0.00,,CLR,0.00,0.00,VWS V14.01,2013-05-03 04:41:00,
2013-05-03 00:46:00,62.5,56.2,30.13,East,90,13.0,13.0,80,0.00,,CLR,0.00,0.00,VWS V14.01,2013-05-03 04:46:00,
2013-05-03 00:51:00,62.5,56.2,30.13,ENE,71,1.0,10.0,80,0.00,,CLR,0.00,0.00,VWS V14.01,2013-05-03 04:51:00,
2013-05-03 00:56:00,62.3,56.4,30.13,East,86,5.0,8.0,81,0.00,,CLR,0.00,0.00,VWS V14.01,2013-05-03 04:56:00,
2013-05-03 01:01:00,62.1,56.2,30.13,ENE,57,1.0,8.0,81,0.00,,CLR,0.00,0.00,VWS V14.01,2013-05-03 05:01:00,
2013-05-03 01:06:00,61.9,56.3,30.13,ENE,63,2.0,5.0,82,0.00,,CLR,0.00,0.00,VWS V14.01,2013-05-03 05:06:00,
2013-05-03 01:11:00,61.8,56.2,30.12,ENE,76,3.0,8.0,82,0.00,,CLR,0.00,0.00,VWS V14.01,2013-05-03 05:11:00,
2013-05-03 01:16:00,61.7,56.5,30.12,NE,44,3.0,8.0,83,0.00,,CLR,0.00,0.00,VWS V14.01,2013-05-03 05:16:00,
2013-05-03 01:21:00,61.5,56.3,30.12,ENE,70,4.0,8.0,83,0.00,,CLR,0.00,0.00,VWS V14.01,2013-05-03 05:21:00,
2013-05-03 01:26:00,61.3,56.1,30.11,NE,49,3.0,7.0,83,0.00,,CLR,0.00,0.00,VWS V14.01,2013-05-03 05:26:00,
2013-05-03 01:31:00,61.1,55.9,30.11,East,79,5.0,7.0,83,0.00,,CLR,0.00,0.00,VWS V14.01,2013-05-03 05:31:00,
2013-05-03 01:36:00,61.0,55.8,30.11,East,83,6.0,8.0,83,0.00,,CLR,0.00,0.00,VWS V14.01,2013-05-03 05:36:00,
2013-05-03 01:41:00,60.9,55.7,30.11,ENE,64,3.0,8.0,83,0.00,,SCT060,0.00,0.00,VWS V14.01,2013-05-03 05:41:00,
2013-05-03 01:46:00,60.8,55.6,30.11,ENE,73,3.0,6.0,83,0.00,,SCT060,0.00,0.00,VWS V14.01,2013-05-03 05:46:00,
2013-05-03 01:51:00,60.6,55.8,30.10,NE,52,5.0,8.0,84,0.00,,SCT060,0.00,0.00,VWS V14.01,2013-05-03 05:51:00,
2013-05-03 01:56:00,60.4,55.5,30.10,NNE,22,3.0,8.0,84,0.00,,SCT060,0.00,0.00,VWS V14.01,2013-05-03 05:56:00,
2013-05-03 02:01:00,60.2,55.3,30.10,NNE,20,2.0,11.0,84,0.00,,SCT060,0.00,0.00,VWS V14.01,2013-05-03 06:01:00,
2013-05-03 02:06:00,60.0,55.5,30.10,East,87,3.0,11.0,85,0.00,,SCT060,0.00,0.00,VWS V14.01,2013-05-03 06:06:00,
2013-05-03 02:11:00,59.9,55.4,30.09,East,99,2.0,11.0,85,0.00,,SCT060,0.00,0.00,VWS V14.01,2013-05-03 06:11:00,
2013-05-03 02:16:00,59.8,55.3,30.10,ENE,63,7.0,8.0,85,0.00,,SCT060,0.00,0.00,VWS V14.01,2013-05-03 06:16:00,
2013-05-03 02:21:00,59.7,55.2,30.10,ENE,76,2.0,4.0,85,0.00,,CLR,0.00,0.00,VWS V14.01,2013-05-03 06:21:00,
2013-05-03 02:26:00,59.6,55.4,30.10,ENE,67,2.0,8.0,86,0.00,,CLR,0.00,0.00,VWS V14.01,2013-05-03 06:26:00,
2013-05-03 02:31:00,59.5,55.3,30.10,NE,41,4.0,7.0,86,0.00,,CLR,0.00,0.00,VWS V14.01,2013-05-03 06:31:00,
2013-05-03 02:35:00,59.5,55.3,30.10,NNW,334,2.0,7.0,86,0.00,,CLR,0.00,0.00,VWS V14.01,2013-05-03 06:35:00,
2013-05-03 02:40:00,59.3,55.1,30.10,East,96,3.0,6.0,86,0.00,,CLR,0.00,0.00,VWS V14.01,2013-05-03 06:40:00,
2013-05-03 02:45:00,59.3,55.1,30.10,East,96,3.0,7.0,86,0.00,,CLR,0.00,0.00,VWS V14.01,2013-05-03 06:45:00,
2013-05-03 02:50:00,59.2,55.3,30.10,ENE,67,5.0,5.0,87,0.00,,CLR,0.00,0.00,VWS V14.01,2013-05-03 06:50:00,
2013-05-03 02:55:00,59.1,55.2,30.09,ESE,111,2.0,7.0,87,0.00,,CLR,0.00,0.00,VWS V14.01,2013-05-03 06:55:00,
2013-05-03 03:00:00,58.9,55.0,30.09,ENE,63,3.0,5.0,87,0.00,,CLR,0.00,0.00,VWS V14.01,2013-05-03 07:00:00,
2013-05-03 03:05:00,58.8,55.0,30.09,NE,36,1.0,8.0,87,0.00,,CLR,0.00,0.00,VWS V14.01,2013-05-03 07:05:00,
2013-05-03 03:10:00,58.7,55.2,30.09,NNE,19,3.0,9.0,88,0.00,,CLR,0.00,0.00,VWS V14.01,2013-05-03 07:10:00,
2013-05-03 03:15:00,58.6,55.1,30.09,East,80,1.0,6.0,88,0.00,,CLR,0.00,0.00,VWS V14.01,2013-05-03 07:15:00,
2013-05-03 03:20:00,58.5,55.0,30.09,East,84,0.0,6.0,88,0.00,,CLR,0.00,0.00,VWS V14.01,2013-05-03 07:20:00,
2013-05-03 03:25:00,58.4,54.9,30.09,NE,55,0.0,8.0,88,0.00,,CLR,0.00,0.00,VWS V14.01,2013-05-03 07:25:00,
2013-05-03 03:30:00,58.4,54.9,30.09,NNE,30,9.0,9.0,88,0.00,,CLR,0.00,0.00,VWS V14.01,2013-05-03 07:30:00,
2013-05-03 03:35:00,58.4,55.2,30.09,ESE,109,4.0,7.0,89,0.00,,CLR,0.00,0.00,VWS V14.01,2013-05-03 07:35:00,
2013-05-03 03:40:00,58.3,55.1,30.09,NE,46,3.0,9.0,89,0.00,,FEW014,0.00,0.00,VWS V14.01,2013-05-03 07:40:00,
2013-05-03 03:45:00,58.3,55.1,30.09,NE,50,3.0,7.0,89,0.00,,FEW014,0.00,0.00,VWS V14.01,2013-05-03 07:45:00,
2013-05-03 03:51:00,58.3,55.1,30.09,East,98,3.0,7.0,89,0.00,,FEW014,0.00,0.00,VWS V14.01,2013-05-03 07:51:00,
2013-05-03 03:56:00,58.2,55.0,30.09,ENE,67,2.0,5.0,89,0.00,,FEW014,0.00,0.00,VWS V14.01,2013-05-03 07:56:00,
2013-05-03 04:01:00,58.2,55.0,30.08,East,80,2.0,7.0,89,0.00,,BKN070,0.00,0.00,VWS V14.01,2013-05-03 08:01:00,
2013-05-03 04:06:00,58.2,55.0,30.08,ENE,62,0.0,8.0,89,0.00,,BKN070,0.00,0.00,VWS V14.01,2013-05-03 08:06:00,
2013-05-03 04:11:00,58.2,55.3,30.08,ENE,61,0.0,5.0,90,0.00,,BKN070,0.00,0.00,VWS V14.01,2013-05-03 08:11:00,
2013-05-03 04:16:00,58.3,55.4,30.08,ENE,63,3.0,9.0,90,0.00,,BKN070,0.00,0.00,VWS V14.01,2013-05-03 08:16:00,
2013-05-03 04:21:00,58.3,55.1,30.07,ENE,74,2.0,9.0,89,0.00,,BKN070,0.00,0.00,VWS V14.01,2013-05-03 08:21:00,
2013-05-03 04:26:00,58.3,55.4,30.08,North,5,2.0,3.0,90,0.00,,BKN070,0.00,0.00,VWS V14.01,2013-05-03 08:26:00,
2013-05-03 04:31:00,58.4,55.5,30.08,NE,45,0.0,3.0,90,0.00,,BKN070,0.00,0.00,VWS V14.01,2013-05-03 08:31:00,
2013-05-03 04:36:00,58.4,55.5,30.07,ENE,60,2.0,5.0,90,0.00,,BKN070,0.00,0.00,VWS V14.01,2013-05-03 08:36:00,
2013-05-03 04:40:00,58.5,55.6,30.07,NE,51,1.0,7.0,90,0.00,,OVC070,0.00,0.00,VWS V14.01,2013-05-03 08:40:00,
2013-05-03 04:45:00,58.6,55.7,30.08,NE,42,6.0,6.0,90,0.00,,OVC070,0.00,0.00,VWS V14.01,2013-05-03 08:45:00,
2013-05-03 04:50:00,58.6,55.7,30.08,NE,48,4.0,8.0,90,0.00,,OVC070,0.00,0.00,VWS V14.01,2013-05-03 08:50:00,
2013-05-03 04:55:00,58.7,55.8,30.08,ENE,65,1.0,5.0,90,0.00,,OVC070,0.00,0.00,VWS V14.01,2013-05-03 08:55:00,
2013-05-03 05:00:00,58.7,55.8,30.08,East,82,5.0,7.0,90,0.00,,OVC070,0.00,0.00,VWS V14.01,2013-05-03 09:00:00,
2013-05-03 05:05:00,58.8,55.9,30.08,NE,51,1.0,8.0,90,0.00,,OVC070,0.00,0.00,VWS V14.01,2013-05-03 09:05:00,
2013-05-03 05:10:00,58.9,56.0,30.08,NE,49,1.0,8.0,90,0.00,,OVC070,0.00,0.00,VWS V14.01,2013-05-03 09:10:00,
2013-05-03 05:15:00,59.0,56.1,30.08,ENE,65,4.0,6.0,90,0.00,,OVC070,0.00,0.00,VWS V14.01,2013-05-03 09:15:00,
2013-05-03 05:20:00,59.0,56.1,30.08,NE,34,2.0,7.0,90,0.00,,OVC070,0.00,0.00,VWS V14.01,2013-05-03 09:20:00,
2013-05-03 05:25:00,59.1,56.2,30.08,ENE,57,2.0,4.0,90,0.00,,OVC070,0.00,0.00,VWS V14.01,2013-05-03 09:25:00,
2013-05-03 05:30:00,59.1,56.2,30.08,ENE,62,1.0,8.0,90,0.00,,OVC070,0.00,0.00,VWS V14.01,2013-05-03 09:30:00,
2013-05-03 05:35:00,59.1,56.2,30.08,NE,52,0.0,5.0,90,0.00,,OVC070,0.00,0.00,VWS V14.01,2013-05-03 09:35:00,
2013-05-03 05:40:00,59.0,56.1,30.08,ENE,67,0.0,4.0,90,0.00,,BKN070,0.00,0.00,VWS V14.01,2013-05-03 09:40:00,
2013-05-03 05:45:00,59.0,56.1,30.08,ENE,62,3.0,7.0,90,0.00,,BKN070,0.00,0.00,VWS V14.01,2013-05-03 09:45:00,
2013-05-03 05:50:00,59.0,56.1,30.08,NNE,12,3.0,5.0,90,0.00,,BKN070,0.00,0.00,VWS V14.01,2013-05-03 09:50:00,
2013-05-03 05:55:00,58.9,56.3,30.08,NNE,32,0.0,9.0,91,0.00,,BKN070,0.00,0.00,VWS V14.01,2013-05-03 09:55:00,
2013-05-03 06:00:00,58.9,56.3,30.08,NNE,19,0.0,5.0,91,0.00,,SCT044,0.00,0.00,VWS V14.01,2013-05-03 10:00:00,
2013-05-03 06:05:00,58.9,56.3,30.08,East,86,2.0,8.0,91,0.00,,SCT044,0.00,0.00,VWS V14.01,2013-05-03 10:05:00,
2013-05-03 06:10:00,58.9,56.3,30.08,East,80,3.0,4.0,91,0.00,,SCT044,0.00,0.00,VWS V14.01,2013-05-03 10:10:00,
2013-05-03 06:15:00,58.8,56.2,30.08,NE,48,3.0,4.0,91,0.00,,SCT044,0.00,0.00,VWS V14.01,2013-05-03 10:15:00,
2013-05-03 06:20:00,58.8,56.2,30.09,ENE,64,2.0,5.0,91,0.00,,SCT044,0.00,0.00,VWS V14.01,2013-05-03 10:20:00,
2013-05-03 06:25:00,58.8,56.2,30.09,ENE,57,4.0,7.0,91,0.00,,SCT044,0.00,0.00,VWS V14.01,2013-05-03 10:25:00,
2013-05-03 06:30:00,58.7,56.1,30.09,NE,55,3.0,6.0,91,0.00,,SCT044,0.00,0.00,VWS V14.01,2013-05-03 10:30:00,
2013-05-03 06:35:00,58.7,56.1,30.10,East,89,2.0,7.0,91,0.00,,SCT044,0.00,7.00,VWS V14.01,2013-05-03 10:35:00,
2013-05-03 06:40:00,58.8,56.2,30.09,NNE,30,5.0,5.0,91,0.00,,OVC070,0.00,14.00,VWS V14.01,2013-05-03 10:40:00,
2013-05-03 06:45:00,58.9,56.3,30.10,NE,42,1.0,5.0,91,0.00,,OVC070,0.00,26.00,VWS V14.01,2013-05-03 10:45:00,
2013-05-03 06:50:00,58.9,56.3,30.09,ENE,63,1.0,7.0,91,0.00,,OVC070,0.00,42.00,VWS V14.01,2013-05-03 10:50:00,
2013-05-03 06:55:00,58.9,56.0,30.09,ENE,63,2.0,5.0,90,0.00,,OVC070,0.00,42.00,VWS V14.01,2013-05-03 10:55:00,
2013-05-03 07:00:00,59.0,56.1,30.10,ENE,71,3.0,7.0,90,0.00,,BKN065,0.00,42.00,VWS V14.01,2013-05-03 11:00:00,
2013-05-03 07:05:00,59.1,56.2,30.10,ESE,102,1.0,5.0,90,0.00,,BKN065,0.00,46.00,VWS V14.01,2013-05-03 11:05:00,
2013-05-03 07:10:00,59.2,56.3,30.10,ENE,63,3.0,6.0,90,0.00,,BKN065,0.00,51.00,VWS V14.01,2013-05-03 11:10:00,
2013-05-03 07:15:00,59.2,56.3,30.10,NE,47,2.0,8.0,90,0.00,,BKN065,0.00,58.00,VWS V14.01,2013-05-03 11:15:00,
2013-05-03 07:20:00,59.3,56.4,30.10,East,88,2.0,6.0,90,0.00,,BKN065,0.00,62.00,VWS V14.01,2013-05-03 11:20:00,
2013-05-03 07:25:00,59.4,56.5,30.11,East,87,1.0,5.0,90,0.00,,BKN065,0.00,58.00,VWS V14.01,2013-05-03 11:25:00,
2013-05-03 07:30:00,59.5,56.6,30.10,ENE,58,3.0,11.0,90,0.00,,BKN065,0.00,58.00,VWS V14.01,2013-05-03 11:30:00,
2013-05-03 07:35:00,59.6,56.7,30.10,East,85,3.0,7.0,90,0.00,,BKN065,0.00,46.00,VWS V14.01,2013-05-03 11:35:00,
2013-05-03 07:40:00,59.7,56.8,30.11,NE,45,2.0,6.0,90,0.00,,BKN065,0.00,65.00,VWS V14.01,2013-05-03 11:40:00,
2013-05-03 07:45:00,59.9,56.7,30.11,ENE,78,2.0,7.0,89,0.00,,BKN065,0.00,79.00,VWS V14.01,2013-05-03 11:45:00,
2013-05-03 07:50:00,60.0,56.8,30.11,ENE,63,3.0,10.0,89,0.00,,BKN065,0.00,86.00,VWS V14.01,2013-05-03 11:50:00,
2013-05-03 07:55:00,60.1,56.5,30.10,NE,55,4.0,8.0,88,0.00,,BKN065,0.00,81.00,VWS V14.01,2013-05-03 11:55:00,
2013-05-03 08:00:00,60.2,57.0,30.11,NE,49,4.0,8.0,89,0.00,,BKN065,0.00,60.00,VWS V14.01,2013-05-03 12:00:00,
2013-05-03 08:05:00,60.2,57.0,30.11,East,91,8.0,9.0,89,0.00,,BKN065,0.00,51.00,VWS V14.01,2013-05-03 12:05:00,
2013-05-03 08:10:00,60.3,57.0,30.11,ENE,63,3.0,8.0,89,0.00,,BKN075,0.00,58.00,VWS V14.01,2013-05-03 12:10:00,
2013-05-03 08:15:00,60.3,56.7,30.11,NNE,26,2.0,7.0,88,0.00,,BKN075,0.00,83.00,VWS V14.01,2013-05-03 12:15:00,
2013-05-03 08:20:00,60.4,56.8,30.11,ENE,63,2.0,8.0,88,0.00,,BKN075,0.00,109.00,VWS V14.01,2013-05-03 12:20:00,
2013-05-03 08:25:00,60.5,56.9,30.11,ENE,74,2.0,7.0,88,0.00,,BKN075,0.00,114.00,VWS V14.01,2013-05-03 12:25:00,
2013-05-03 08:30:00,60.7,57.1,30.11,East,84,3.0,10.0,88,0.00,,BKN075,0.00,118.00,VWS V14.01,2013-05-03 12:30:00,
2013-05-03 08:35:00,60.9,57.3,30.11,East,92,2.0,14.0,88,0.00,,BKN075,0.00,123.00,VWS V14.01,2013-05-03 12:35:00,
2013-05-03 08:40:00,61.0,57.1,30.11,East,80,2.0,7.0,87,0.00,,BKN075,0.00,137.00,VWS V14.01,2013-05-03 12:40:00,
2013-05-03 08:45:00,61.0,57.1,30.11,NE,55,3.0,9.0,87,0.00,,BKN075,0.00,156.00,VWS V14.01,2013-05-03 12:45:00,
2013-05-03 08:50:00,61.1,57.2,30.11,NE,48,2.0,10.0,87,0.00,,BKN075,0.00,174.00,VWS V14.01,2013-05-03 12:50:00,
2013-05-03 08:55:00,61.3,57.4,30.11,ENE,61,3.0,9.0,87,0.00,,BKN075,0.00,192.00,VWS V14.01,2013-05-03 12:55:00,
2013-05-03 09:00:00,61.4,57.5,30.11,NE,53,6.0,8.0,87,0.00,,BKN075,0.00,236.00,VWS V14.01,2013-05-03 13:00:00,
2013-05-03 09:05:00,61.6,57.7,30.11,ENE,60,4.0,5.0,87,0.00,,BKN075,0.00,221.00,VWS V14.01,2013-05-03 13:05:00,
2013-05-03 09:10:00,61.7,57.8,30.11,NNE,33,6.0,6.0,87,0.00,,BKN075,0.00,213.00,VWS V14.01,2013-05-03 13:10:00,
2013-05-03 09:15:00,61.9,58.0,30.12,East,87,2.0,5.0,87,0.00,,BKN075,0.00,204.00,VWS V14.01,2013-05-03 13:15:00,